sat.trackr.live / text

‹ back to catalog

STARLINK-4287

NORAD 53020 · 2022-076AL

PAYLOAD ACTIVE UNKNOWN

§ Identity

Operator
Country
US
Launch date
2022-07-07
Launch site
AFETR
Launch vehicle
Mass (kg)
RCS (m²)

Purposes: comms

External: N2YO · Heavens-Above · Gunter

§ Orbital elements

Epoch: 2026-09-19T16:07:44.152320Z

Period
93.79 min
Inclination
53.1608°
Eccentricity
0.0001121
Mean motion
15.35403555 rev/d
Perigee alt
459.0 km
Apogee alt
460.5 km
Semi-major
6,837.9 km
B*
1.4306e-5
RAAN
285.9632°
Arg perigee
81.9128°
Mean anomaly
278.2002°
Rev number
23,236

§ Raw data

STARLINK-42871 53020U 22076AL  26262.67203880  .00000119  00000+0  14306-4 0  99972 53020  53.1608 285.9632 0001121  81.9128 278.2002 15.35403555232367

JSON: /api/v1/satellites/53020 · /tle

For live sub-satellite position, see the globe view (requires WebGL).

§ Visibility from observer

Set your observer location to see the next 7 days of passes ≥ 10°. The values pass through the URL so the page stays shareable.

No JS? Fill the form by hand. The geolocation button needs JavaScript.